Location: Newark
(9.4667°S, 159.8167°E)
Time: 07:33:04
(UTC+00:00)

Courier 1B Rocket - Pass Details

Date: 28 November 2019
Orbit: 920 x 1202 km, 28.2° (Epoch: 12 December)

Event Time Altitude Azimuth Distance (km) Brightness Sun altitude
Rises 09:49:31 0° 297° (WNW) 4,019 8.6 -32.3°
Reaches altitude 10° 09:52:18 10° 296° (WNW) 3,085 7.9 -32.8°
Enters shadow 09:59:39 79° 253° (WSW) 1,220 5.4 -34.4°
Maximum altitude 10:00:03 82° 209° (SSW) 1,211 - -34.4°
Drops below altitude 10° 10:07:56 10° 121° (ESE) 3,124 - -36.0°
Sets 10:10:46 0° 120° (ESE) 4,072 - -36.6°
